Franklin, NC

4:55 AM EDT on May 27, 2018 (GMT -0400)
Franklin

Weather History for K1A5 - January, 2006

Change the Weather History Date:

Monday, January 9, 2006

  Actual Average (KTOC) Record (KTOC)
Temperature  
Mean Temperature 54 °F -  
Max Temperature 66 °F 48 °F 67 °F (2018)
Min Temperature 42 °F 29 °F 20 °F (2015)
Degree Days  
Heating Degree Days 11    
Growing Degree Days 4 (Base 50)    
Moisture  
Dew Point 47 °F    
Average Humidity 72    
Maximum Humidity 88    
Minimum Humidity 52    
Precipitation  
Precipitation 0.00 in - - ()
Sea Level Pressure  
Sea Level Pressure 30.22 in    
Wind  
Wind Speed 2 mph (WNW)    
Max Wind Speed 10 mph    
Max Gust Speed -    
Visibility 10 miles    
Events      
Averages and records for this station are not official NWS values.
T = Trace of Precipitation, MM = Missing Value Source: NWS Daily Summary

Daily Weather History Graph

Daily Weather History Graph

Search for Another Location

Airport or City:

Astronomy

Jan. 09, 2006 Rise Set
Actual Time 7:42 AM EST 5:39 PM EST
Civil Twilight 7:14 AM EST 6:07 PM EST
Nautical Twilight 6:43 AM EST 6:38 PM EST
Astronomical Twilight 6:12 AM EST 7:09 PM EST
Moon 1:39 PM EST (1/9) 3:30 AM EST (1/9)
Length of Visible Light 10h 52m
Length of Day
9h 56m
Waxing Gibbous, 79% of the Moon is Illuminated
Jan 9
Waxing Gibbous
Jan 14
Full
Jan 22
Last Quarter
Jan 29
New
Feb 5
First Quarter

Hourly Weather History & Observations

Time (EST) Temp. Windchill Dew Point Humidity Pressure Visibility Wind Dir Wind Speed Gust Speed Precip Events Conditions
12:00 AM 42.8 °F 41.1 °F 37.4 °F 81% 30.11 in 10.0 mi East 3.5 mph - N/A   Clear
12:20 AM 44.6 °F - 37.4 °F 76% 30.11 in 10.0 mi Calm Calm - N/A   Clear
1:00 AM 46.4 °F 45.2 °F 39.2 °F 76% 30.12 in 10.0 mi ENE 3.5 mph - N/A   Overcast
1:20 AM 48.2 °F - 41.0 °F 76% 30.11 in 10.0 mi Calm Calm - N/A   Overcast
1:40 AM 50.0 °F - 41.0 °F 71% 30.12 in 10.0 mi Calm Calm - N/A   Overcast
2:00 AM 50.0 °F - 41.0 °F 71% 30.13 in 10.0 mi Calm Calm - N/A   Overcast
2:20 AM 50.0 °F - 42.8 °F 76% 30.13 in 10.0 mi Calm Calm - N/A   Overcast
2:40 AM 50.0 °F - 42.8 °F 76% 30.13 in 10.0 mi Calm Calm - N/A   Overcast
3:00 AM 50.0 °F - 42.8 °F 76% 30.13 in 10.0 mi Calm Calm - N/A   Overcast
3:20 AM 50.0 °F - 42.8 °F 76% 30.13 in 10.0 mi Calm Calm - N/A   Overcast
3:40 AM 51.8 °F - 44.6 °F 76% 30.14 in 10.0 mi SSW 3.5 mph - N/A   Overcast
4:00 AM 51.8 °F - 44.6 °F 76% 30.14 in 10.0 mi SW 3.5 mph - N/A   Overcast
4:20 AM 53.6 °F - 44.6 °F 72% 30.14 in 10.0 mi Calm Calm - N/A   Overcast
5:00 AM 53.6 °F - 44.6 °F 72% 30.14 in 10.0 mi Calm Calm - N/A   Overcast
5:20 AM 53.6 °F - 46.4 °F 77% 30.14 in 10.0 mi WSW 3.5 mph - N/A   Overcast
6:00 AM 53.6 °F - 46.4 °F 77% 30.15 in 10.0 mi WSW 3.5 mph - N/A   Overcast
6:40 AM 53.6 °F - 46.4 °F 77% 30.15 in 10.0 mi WSW 3.5 mph - N/A   Overcast
7:00 AM 51.8 °F - 44.6 °F 76% 30.16 in 10.0 mi South 3.5 mph - N/A   Overcast
7:20 AM 51.8 °F - 44.6 °F 76% 30.16 in 10.0 mi Calm Calm - N/A   Mostly Cloudy
8:01 AM 50.0 °F - 44.6 °F 82% 30.18 in 10.0 mi East 4.6 mph - N/A   Overcast
8:20 AM 51.8 °F - 44.6 °F 76% 30.19 in 10.0 mi SSE 3.5 mph - N/A   Overcast
8:40 AM 51.8 °F - 46.4 °F 82% 30.20 in 10.0 mi NE 3.5 mph - N/A   Overcast
9:00 AM 53.6 °F - 46.4 °F 77% 30.21 in 10.0 mi ENE 4.6 mph - N/A   Overcast
9:20 AM 53.6 °F - 46.4 °F 77% 30.22 in 10.0 mi Calm Calm - N/A   Overcast
9:40 AM 55.4 °F - 46.4 °F 72% 30.23 in 10.0 mi Calm Calm - N/A   Mostly Cloudy
10:00 AM 57.2 °F - 46.4 °F 67% 30.24 in 10.0 mi Calm Calm - N/A   Mostly Cloudy
10:20 AM 57.2 °F - 48.2 °F 72% 30.25 in 10.0 mi Calm Calm - N/A   Overcast
10:40 AM 59.0 °F - 48.2 °F 67% 30.26 in 10.0 mi Calm Calm - N/A   Mostly Cloudy
11:00 AM 62.6 °F - 48.2 °F 59% 30.25 in 10.0 mi Calm Calm - N/A   Mostly Cloudy
11:20 AM 64.4 °F - 48.2 °F 56% 30.25 in 10.0 mi West 8.1 mph - N/A   Scattered Clouds
11:40 AM 64.4 °F - 48.2 °F 56% 30.25 in 10.0 mi West 10.4 mph - N/A   Mostly Cloudy
12:00 PM 64.4 °F - 46.4 °F 52% 30.24 in 10.0 mi WNW 8.1 mph - N/A   Mostly Cloudy
12:40 PM 66.2 °F - 48.2 °F 52% 30.23 in 10.0 mi West 5.8 mph - N/A   Scattered Clouds
1:00 PM 64.4 °F - 50.0 °F 59% 30.23 in 10.0 mi NW 8.1 mph - N/A   Mostly Cloudy
2:00 PM 64.4 °F - 50.0 °F 59% 30.22 in 10.0 mi NW 4.6 mph - N/A   Mostly Cloudy
2:20 PM 64.4 °F - 50.0 °F 59% 30.23 in 10.0 mi NW 6.9 mph - N/A   Scattered Clouds
3:00 PM 64.4 °F - 50.0 °F 59% 30.23 in 10.0 mi Calm Calm - N/A   Clear
3:20 PM 64.4 °F - 48.2 °F 56% 30.24 in 10.0 mi Calm Calm - N/A   Clear
4:00 PM 66.2 °F - 50.0 °F 56% 30.25 in 10.0 mi NNE 5.8 mph - N/A   Scattered Clouds
4:20 PM 64.4 °F - 50.0 °F 59% 30.25 in 10.0 mi NNE 6.9 mph - N/A   Scattered Clouds
4:40 PM 64.4 °F - 48.2 °F 56% 30.26 in 10.0 mi NNE 4.6 mph - N/A   Mostly Cloudy
5:00 PM 64.4 °F - 48.2 °F 56% 30.26 in 10.0 mi ENE 3.5 mph - N/A   Mostly Cloudy
5:20 PM 62.6 °F - 50.0 °F 63% 30.27 in 10.0 mi Calm Calm - N/A   Scattered Clouds
5:40 PM 60.8 °F - 50.0 °F 68% 30.27 in 10.0 mi Calm Calm - N/A   Mostly Cloudy
6:00 PM 59.0 °F - 50.0 °F 72% 30.28 in 10.0 mi Calm Calm - N/A   Overcast
6:20 PM 59.0 °F - 50.0 °F 72% 30.28 in 10.0 mi Calm Calm - N/A   Overcast
7:00 PM 55.4 °F - 50.0 °F 82% 30.29 in 7.0 mi Calm Calm - N/A   Overcast
7:20 PM 55.4 °F - 50.0 °F 82% 30.30 in 10.0 mi Calm Calm - N/A   Mostly Cloudy
7:40 PM 55.4 °F - 50.0 °F 82% 30.30 in 7.0 mi Calm Calm - N/A   Overcast
8:00 PM 53.6 °F - 50.0 °F 88% 30.30 in 7.0 mi Calm Calm - N/A   Mostly Cloudy
8:40 PM 55.4 °F - 50.0 °F 82% 30.32 in 10.0 mi Calm Calm - N/A   Overcast
9:00 PM 55.4 °F - 50.0 °F 82% 30.32 in 10.0 mi Calm Calm - N/A   Overcast
9:40 PM 53.6 °F - 50.0 °F 88% 30.32 in 10.0 mi WSW 3.5 mph - N/A   Overcast
10:00 PM 53.6 °F - 48.2 °F 82% 30.32 in 7.0 mi Calm Calm - N/A   Overcast
10:20 PM 51.8 °F - 46.4 °F 82% 30.33 in 5.0 mi Calm Calm - N/A   Haze
10:40 PM 51.8 °F - 46.4 °F 82% 30.33 in 7.0 mi Calm Calm - N/A   Overcast
11:00 PM 51.8 °F - 46.4 °F 82% 30.33 in 7.0 mi Calm Calm - N/A   Mostly Cloudy
11:20 PM 50.0 °F - 46.4 °F 87% 30.33 in 5.0 mi Calm Calm - N/A   Mostly Cloudy
11:40 PM 50.0 °F - 46.4 °F 87% 30.34 in 7.0 mi WSW 3.5 mph - N/A   Mostly Cloudy